Location: Unspecified
(0.0000°N, 0.0000°E)
Time: 12:03:28
(UTC+00:00)

X-37B - Pass Details

Date: 19 June 2021
Orbit: 386 x 389 km, 45.0° (Epoch: 10 June)

Event Time Altitude Azimuth Distance (km) Brightness Sun altitude
Rises 19:24:04 0° 224° (SW) 2,265 4.7 -18.9°
Reaches altitude 10° 19:26:09 10° 225° (SW) 1,408 3.6 -19.3°
Maximum altitude 19:29:19 79° 312° (NW) 394 0.6 -20.1°
Enters shadow 19:29:20 79° 320° (NW) 394 0.6 -20.1°
